Flag for United Kingdom Weather past 2 weeks in Eastbourne, England, United Kingdom

Now
54 °F

Fog.


Feels Like: 54 °F
Forecast: 60 / 73 °F
Wind: 2 mph from North

Location: London / Gatwick Airport

Current Time: Sep 16, 2014 at 4:50:29 AM

Latest Report: Sep 16, 2014 at 4:20 AM


Visibility: 1 mi

Pressure: 29.95 "Hg

Humidity: 94%

Dew point: 52 °F

Location of EastbourneLocation

Historic Weather in Eastbourne — Graph

°F

Eastbourne temperature yesterday

Maximum temperature yesterday: 70 °F (at 1:20 PM)
Minimum temperature yesterday: 54 °F (at 6:20 AM)
Average temperature yesterday: 61 °F

Past Weeks' High & Low Weather Summary

 TemperatureHumidityPressure
High73 °F (Sep 3, 12:50 PM)100% (Sep 1, 6:20 AM)30.30 "Hg (Sep 1, 6:20 AM)
Low46 °F (Sep 10, 5:50 AM)43% (Sep 8, 1:50 PM)29.92 "Hg (Sep 6, 5:50 PM)
Average60 °F83%30.12 "Hg
* Reported Sep 1 3:50 AM — Sep 16 3:20 AM, Eastbourne, Weather by CustomWeather, © 2014

Note: Actual official high and low records may vary slightly from our data, if they occured in-between our weather recording intervals... More about our weather records

Advertising

Eastbourne weather history for previous 24 hours

 ConditionsComfort  
Time TempWeatherWind HumidityBarometerVisibility
3:20 AM
Sep 16
54 °FFog.No wind100%29.98 "Hg2 mi
2:50 AM55 °FFog.No wind94%29.98 "Hg1 mi
2:20 AM54 °FFog.2 mph100%29.98 "Hg1 mi
1:50 AM54 °FFog.3 mph100%29.98 "Hg2 mi
1:20 AM54 °FHaze.3 mph94%29.98 "Hg2 mi
12:50 AM55 °FHaze.3 mph94%29.98 "Hg2 mi
12:20 AM55 °FFog.2 mph100%29.98 "Hg2 mi
11:50 PM
Sep 15
55 °FFog.No wind100%29.98 "Hg2 mi
11:20 PM55 °FFog.2 mph100%29.98 "Hg2 mi
10:50 PM55 °FFog.5 mph94%29.98 "Hg2 mi
10:20 PM55 °FFog.6 mph94%30.01 "Hg2 mi
9:50 PM55 °FClear.6 mph94%30.01 "Hg4 mi
9:20 PM57 °FClear.5 mph94%30.01 "Hg4 mi
8:50 PM57 °FClear.5 mph94%30.01 "Hg4 mi
8:20 PM57 °FClear.6 mph94%29.98 "Hg5 mi
7:50 PM61 °FSunny.6 mph83%29.98 "Hg10 mi
7:20 PM63 °FSunny.8 mph83%29.98 "Hg10 mi
6:50 PM63 °FSunny.6 mph83%29.98 "Hg10 mi
6:20 PM66 °FPassing clouds.9 mph73%29.98 "HgN/A
5:50 PM68 °FPassing clouds.9 mph69%29.98 "HgN/A
5:20 PM68 °FPassing clouds.8 mph69%29.98 "HgN/A
4:50 PM68 °FPassing clouds.8 mph64%29.98 "HgN/A
4:20 PM68 °FPassing clouds.9 mph64%29.98 "HgN/A
3:50 PM68 °FScattered clouds.9 mph64%29.98 "HgN/A
3:20 PM70 °FScattered clouds.8 mph57%29.98 "HgN/A
2:50 PM70 °FPassing clouds.6 mph60%30.01 "HgN/A
2:20 PM70 °FScattered clouds.8 mph60%30.01 "HgN/A
1:50 PM70 °FScattered clouds.8 mph60%30.01 "HgN/A
1:20 PM70 °FScattered clouds.8 mph64%30.01 "HgN/A
12:50 PM68 °FScattered clouds.8 mph69%30.01 "HgN/A
12:20 PM66 °FScattered clouds.7 mph73%30.04 "HgN/A
11:50 AM66 °FPartly sunny.7 mph73%30.04 "HgN/A
11:20 AM64 °FPartly sunny.7 mph78%30.04 "HgN/A
10:50 AM64 °FPartly sunny.6 mph78%30.04 "HgN/A
10:20 AM63 °FPartly sunny.7 mph77%30.04 "HgN/A
9:20 AM59 °FPartly sunny.7 mph88%30.04 "HgN/A
8:50 AM59 °FPartly sunny.5 mph88%30.04 "Hg5 mi
8:20 AM57 °FPartly sunny.6 mph94%30.04 "Hg4 mi
7:50 AM55 °FFog.7 mph100%30.04 "Hg3 mi
7:20 AM55 °FFog.8 mph100%30.04 "Hg3 mi
6:50 AM55 °FPassing clouds.8 mph94%30.04 "Hg4 mi
6:20 AM54 °FPassing clouds.6 mph100%30.04 "Hg4 mi
5:50 AM55 °FPassing clouds.6 mph94%30.04 "Hg4 mi
5:20 AM55 °FPassing clouds.6 mph94%30.07 "Hg5 mi
4:50 AM57 °FPassing clouds.5 mph88%30.07 "Hg5 mi
4:20 AM57 °FPassing clouds.6 mph94%30.07 "Hg6 mi
Weather by CustomWeather, © 2014

See weather overviewHow to use our weather pages